Вернуться в каталог

DELTA 1 DEB

АктивенPO
NORAD 21329·DEBRIS·🇺🇸 United States

Запущен Jun 12, 1975 с Vandenberg Space Force Base

Loading…

Ближайшие Пролёты (ближайшие 24 часа)

TLE

СвежийSource: Space-Track

Эпоха: Sep 14, 2026, 10:10 UTC

1 21329U 75052AX  26257.42363606  .00011616  00000-0  22802-2 0  9999
2 21329  99.6709 322.6128 0103422 102.6789 322.0911 14.59499468781595

Отслеживайте DELTA 1 DEB в реальном времени с AllMySat

Download on the App Store